Location: Montclair
(37.8322°N, 122.2092°W)
Time: 15:00:32
(UTC+00:00)

IRS-1D - Pass Details

Date: 08 September 2024
Orbit: 738 x 812 km, 98.8° (Epoch: 08 October)

Event Time Altitude Azimuth Distance (km) Brightness Sun altitude
Rises 12:01:52 0° 14° (NNE) 3,327 7.4 -20.4°
Reaches altitude 10° 12:04:13 10° 15° (NNE) 2,398 6.6 -20.0°
Maximum altitude 12:09:33 84° 103° (ESE) 821 3.6 -19.0°
Enters shadow 12:14:30 12° 192° (SSW) 2,247 5.6 -18.1°
